"Pseudo-MPEC" for A11FMwA

Created 2026 Aug 19 2:35:02 UT using Find_Orb

Click here for an explanation of pseudo-MPECs

 
 Astrometry: 
     A11FMwA*0C2026 08 18.86301919 47 32.604-16 31 43.03   ~8INK 17.19oVNEOCPM22
     A11FMwA 0C2026 08 18.86617319 47 32.542-16 31 43.75   ~8INK 17.23oVNEOCPM22
     A11FMwA 0C2026 08 18.87147419 47 32.443-16 31 44.47   ~8INK 17.16oVNEOCPM22
     A11FMwA 0C2026 08 18.88139019 47 32.278-16 31 45.01   ~8INK 17.06oVNEOCPM22
     A11FMwA KB2026 08 19.03543119 48 28.186-16 35 31.62   ~8J1Z 16.7 VZNEOCPY05
     A11FMwA KB2026 08 19.04262019 48 27.786-16 35 32.99   ~8J1Z 17.3 VZNEOCPY05
     A11FMwA KB2026 08 19.04980619 48 27.394-16 35 33.89   ~8J1Z 17.6 VZNEOCPY05

Station data:
(M22) ATLAS South Africa, Sutherland  (S32.380156 E20.810590)  South Africa.
   Observers L. Denneau, R. Siverd, J. Tonry, H. Weiland. Measurers L.
   Denneau, N. Erasmus, A. Fitzsimmons, J. Robinson, R. Siverd, J. Tonry, H.
   Weiland. 0.5-m f/2.0 Schmidt + CCD.
(Y05) SONEAR Wykrota-CEAMIG, Serra da Piedade  (S19.824251 W43.690000)
   Brazil.  Observer C. Jacques. 0.45-m f/2.9 reflector + CMO.

Orbital elements:  A11FMwA
   Perihelion 2026 Sep 13.337462 +/- 76 TT =  8:05:56.6 (JD 2461296.837462)
Epoch 2026 Aug 19.0 TT = JDT 2461271.5   Earth MOID: 0.0079      AutoNEOCP
M 336.211886593 +/- 60              (J2000 ecliptic)
n   0.938851483 +/- 0.0612          Peri.  186.619131 +/- 90
a   1.032931332 +/- 0.0449          Node   163.184341 +/- 22
e   0.01291016 +/- 0.0543           Incl.    0.147406 +/- 0.17
P   1.050/383.440d         H 26.05  G  0.15   U 10.9
q 1.019596017 +/- 0.0118    Q 1.046266647 +/- 0.101
From 7 observations 2026 Aug. 18-19 (4.5 hr); mean residual 0".05
Residuals in arcseconds: 
260818 M22  .03+  .14+    260818 M22  .00   .02+    260819 Y05  .02+  .02+    
260818 M22  .01-  .06-    260819 Y05  .00   .03-    
260818 M22  .03-  .09-    260819 Y05  .02-  .01+    

Ephemerides (geocentric):
Date (UTC) HH   RA             Dec           delta  r     elong  mag " sig PA
---- --------  ------------   ------------  ------ ------ -----  --- --------
2026 08 19 03  19 48 54.803   -16 36 39.44  .00997 1.0207 150.0 17.4 7.45 102
2026 08 19 04  19 49 07.681   -16 36 48.12  .00998 1.0207 150.0 17.4 12.9 101
2026 08 19 05  19 49 20.562   -16 36 56.72  .00998 1.0207 150.0 17.4 19.4  99
2026 08 19 06  19 49 33.445   -16 37 05.24  .00998 1.0207 150.0 17.4 27.2  99
2026 08 19 07  19 49 46.331   -16 37 13.68  .00999 1.0207 150.0 17.4 36.2  98
2026 08 19 08  19 49 59.218   -16 37 22.05  .00999 1.0207 150.0 17.4 46.4  97
2026 08 19 09  19 50 12.108   -16 37 30.33  .01000 1.0207 150.1 17.4 57.8  97
2026 08 19 10  19 50 24.999   -16 37 38.54  .01000 1.0207 150.1 17.4 70.4  97
2026 08 19 11  19 50 37.893   -16 37 46.67  .01000 1.0207 150.1 17.4 84.2  96
2026 08 19 12  19 50 50.789   -16 37 54.72  .01001 1.0207 150.1 17.4   99  96
2026 08 19 13  19 51 03.687   -16 38 02.68  .01001 1.0207 150.1 17.4  116  96
2026 08 19 14  19 51 16.587   -16 38 10.57  .01002 1.0207 150.1 17.4  133  96
2026 08 19 15  19 51 29.489   -16 38 18.39  .01002 1.0207 150.1 17.4  152  95
2026 08 19 16  19 51 42.393   -16 38 26.12  .01002 1.0207 150.1 17.4  172  95
2026 08 19 17  19 51 55.300   -16 38 33.77  .01003 1.0207 150.1 17.4  194  95
2026 08 19 18  19 52 08.208   -16 38 41.35  .01003 1.0207 150.2 17.4  217  95
2026 08 19 19  19 52 21.118   -16 38 48.84  .01004 1.0207 150.2 17.4  241  95
2026 08 19 20  19 52 34.030   -16 38 56.26  .01004 1.0207 150.2 17.4  266  95
2026 08 19 21  19 52 46.944   -16 39 03.59  .01004 1.0207 150.2 17.4  293  95
2026 08 19 22  19 52 59.861   -16 39 10.85  .01005 1.0207 150.2 17.4  321  94
2026 08 19 23  19 53 12.779   -16 39 18.03  .01005 1.0207 150.2 17.4  351  94
2026 08 20 00  19 53 25.699   -16 39 25.13  .01006 1.0207 150.2 17.4  382  94
2026 08 20 01  19 53 38.621   -16 39 32.15  .01006 1.0207 150.2 17.4  414  94
2026 08 20 02  19 53 51.545   -16 39 39.09  .01006 1.0207 150.3 17.4  448  94
2026 08 20 03  19 54 04.471   -16 39 45.95  .01007 1.0207 150.3 17.4  483  94
2026 08 20 04  19 54 17.398   -16 39 52.73  .01007 1.0206 150.3 17.4  519  94
2026 08 20 05  19 54 30.328   -16 39 59.43  .01008 1.0206 150.3 17.4  557  94
2026 08 20 06  19 54 43.259   -16 40 06.05  .01008 1.0206 150.3 17.4  597  94
2026 08 20 07  19 54 56.193   -16 40 12.60  .01009 1.0206 150.3 17.4  638  94
2026 08 20 08  19 55 09.128   -16 40 19.06  .01009 1.0206 150.3 17.4  680  94
2026 08 20 09  19 55 22.065   -16 40 25.45  .01009 1.0206 150.3 17.4  724  94
2026 08 20 10  19 55 35.003   -16 40 31.75  .01010 1.0206 150.3 17.4  769  94
2026 08 20 11  19 55 47.944   -16 40 37.98  .01010 1.0206 150.4 17.4  816  93
2026 08 20 12  19 56 00.886   -16 40 44.13  .01011 1.0206 150.4 17.4  864  93
2026 08 20 13  19 56 13.830   -16 40 50.19  .01011 1.0206 150.4 17.4  914  93
2026 08 20 14  19 56 26.776   -16 40 56.18  .01011 1.0206 150.4 17.4  966  93
2026 08 20 15  19 56 39.723   -16 41 02.09  .01012 1.0206 150.4 17.4 1019  93
2026 08 20 16  19 56 52.672   -16 41 07.92  .01012 1.0206 150.4 17.4 1073  93
2026 08 20 17  19 57 05.623   -16 41 13.67  .01013 1.0206 150.4 17.4 1129  93
2026 08 20 18  19 57 18.576   -16 41 19.34  .01013 1.0206 150.4 17.4 1187  93
2026 08 20 19  19 57 31.530   -16 41 24.93  .01013 1.0206 150.5 17.4 1247  93
2026 08 20 20  19 57 44.485   -16 41 30.45  .01014 1.0206 150.5 17.4 1308  93
2026 08 20 21  19 57 57.443   -16 41 35.88  .01014 1.0206 150.5 17.4 1371  93
2026 08 20 22  19 58 10.402   -16 41 41.23  .01015 1.0206 150.5 17.4 1435  93
2026 08 20 23  19 58 23.362   -16 41 46.51  .01015 1.0206 150.5 17.4 1501  93
2026 08 21 00  19 58 36.324   -16 41 51.70  .01015 1.0206 150.5 17.4 1569  93
2026 08 21 01  19 58 49.288   -16 41 56.82  .01016 1.0206 150.5 17.4 1638  93
2026 08 21 02  19 59 02.253   -16 42 01.86  .01016 1.0206 150.5 17.4 1709  93